#�ϑ�����,���ϕ���,���ϕ���,�ő啗��,�ő啗����������,�ő�u�ԕ���,�ő�u�ԕ�����������
#(�N����),(m/s)   ,(16����),(m/s)   ,(16����)        ,(m/s)       ,(16����)            
2018/3/5 0:01,2.3,3,2.5,3,2.6,2
2018/3/5 0:02,2.1,3,2.2,3,2.9,3
2018/3/5 0:03,2.1,3,2.1,3,4.1,3
2018/3/5 0:04,2.2,3,2.2,3,4.1,3
2018/3/5 0:05,2.2,3,2.2,4,3.3,3
2018/3/5 0:06,2.4,3,2.4,3,4.9,4
2018/3/5 0:07,2.4,3,2.4,3,3.7,3
2018/3/5 0:08,2.4,3,2.5,3,2.7,2
2018/3/5 0:09,2.4,3,2.4,3,3.9,4
2018/3/5 0:10,2.4,3,2.4,3,3.8,4
2018/3/5 0:11,2.4,3,2.4,3,2.7,3
2018/3/5 0:12,2.3,3,2.4,3,2.9,2
2018/3/5 0:13,2.3,3,2.3,3,3.6,3
2018/3/5 0:14,2.2,3,2.3,3,3.6,2
2018/3/5 0:15,2.3,3,2.3,3,4.5,3
2018/3/5 0:16,2.2,2,2.3,3,5.1,3
2018/3/5 0:17,2.3,2,2.3,3,5.4,3
2018/3/5 0:18,2.4,2,2.4,3,4.9,3
2018/3/5 0:19,2.5,3,2.5,3,4.3,3
2018/3/5 0:20,2.5,2,2.5,3,3.3,3
2018/3/5 0:21,2.6,2,2.6,2,4.2,2
2018/3/5 0:22,2.8,3,2.8,3,4.9,3
2018/3/5 0:23,2.7,3,2.8,3,2.2,1
2018/3/5 0:24,2.8,3,2.8,3,5,3
2018/3/5 0:25,2.9,3,2.9,3,5.2,3
2018/3/5 0:26,2.9,3,2.9,3,4.2,3
2018/3/5 0:27,2.8,3,2.9,3,4.1,3
2018/3/5 0:28,2.7,3,2.8,3,2.7,5
2018/3/5 0:29,2.7,3,2.7,3,4.1,3
2018/3/5 0:30,2.7,3,2.7,3,4.3,5
2018/3/5 0:31,2.8,4,2.8,3,4.9,5
2018/3/5 0:32,2.9,4,2.9,3,5.6,5
2018/3/5 0:33,3.1,4,3.1,4,4.7,5
2018/3/5 0:34,3.1,4,3.1,4,3.9,6
2018/3/5 0:35,2.9,4,3,4,3.7,5
2018/3/5 0:36,2.9,4,2.9,4,3.1,4
2018/3/5 0:37,2.8,5,2.9,4,3.9,5
2018/3/5 0:38,2.8,5,2.8,4,2.6,6
2018/3/5 0:39,2.8,5,2.8,4,3.6,5
2018/3/5 0:40,2.8,5,2.8,4,3.3,5
2018/3/5 0:41,2.6,5,2.8,4,2.7,5
2018/3/5 0:42,2.3,5,2.6,4,3,5
2018/3/5 0:43,2.2,5,2.3,4,3,5
2018/3/5 0:44,2,5,2.2,4,3.1,5
2018/3/5 0:45,2,5,2,4,4.1,5
2018/3/5 0:46,2,5,2,4,4.1,3
2018/3/5 0:47,2,5,2,5,4.1,3
2018/3/5 0:48,2.1,5,2.1,5,3.3,4
2018/3/5 0:49,2.1,5,2.2,5,3.7,4
2018/3/5 0:50,2.2,5,2.2,5,4.5,5
2018/3/5 0:51,2.4,5,2.4,5,4.8,5
2018/3/5 0:52,2.4,5,2.4,5,3.1,5
2018/3/5 0:53,2.5,5,2.5,5,3.3,5
2018/3/5 0:54,2.5,5,2.5,5,3.3,4
2018/3/5 0:55,2.7,4,2.7,4,5.1,4
2018/3/5 0:56,2.7,4,2.7,4,5,5
2018/3/5 0:57,2.7,4,2.7,4,5.4,6
2018/3/5 0:58,2.9,5,2.9,5,5.2,5
2018/3/5 0:59,3,5,3,5,4.5,5
2018/3/5 1:00,2.9,5,3,5,4.4,5
2018/3/5 1:01,2.7,5,2.9,5,3.2,2
2018/3/5 1:02,2.7,5,2.7,5,3.5,4
2018/3/5 1:03,2.8,4,2.8,5,5.7,5
2018/3/5 1:04,3,4,3,5,5.6,5
2018/3/5 1:05,2.8,5,3,5,3.8,5
2018/3/5 1:06,2.8,5,2.8,5,3.7,5
2018/3/5 1:07,2.8,5,2.8,5,4.3,5
2018/3/5 1:08,2.5,4,2.7,5,2.7,3
2018/3/5 1:09,2.4,4,2.5,5,3.5,5
2018/3/5 1:10,2.4,4,2.4,4,3.8,5
2018/3/5 1:11,2.5,4,2.5,4,4.3,4
2018/3/5 1:12,2.5,4,2.6,4,3.6,5
2018/3/5 1:13,2.5,4,2.6,4,5.5,6
2018/3/5 1:14,2.5,4,2.5,4,4.3,5
2018/3/5 1:15,2.5,4,2.5,5,3.3,5
2018/3/5 1:16,2.5,5,2.6,5,5.2,4
2018/3/5 1:17,2.4,5,2.5,5,2.9,5
2018/3/5 1:18,2.4,5,2.4,4,3.3,6
2018/3/5 1:19,2.4,5,2.5,4,2.9,3
2018/3/5 1:20,2.4,5,2.4,4,3.2,5
2018/3/5 1:21,2.3,5,2.4,4,3,3
2018/3/5 1:22,2.3,5,2.3,4,3.6,3
2018/3/5 1:23,2.2,5,2.3,4,4.1,5
2018/3/5 1:24,2.3,5,2.3,4,5.5,6
2018/3/5 1:25,2.3,5,2.3,4,4.8,5
2018/3/5 1:26,2.3,4,2.3,5,5.5,3
2018/3/5 1:27,2.4,4,2.4,5,5.5,4
2018/3/5 1:28,2.7,4,2.7,4,6.9,6
2018/3/5 1:29,2.8,4,2.8,4,5,6
2018/3/5 1:30,2.8,4,2.8,4,3.3,7
2018/3/5 1:31,2.8,5,2.8,4,3.6,5
2018/3/5 1:32,2.8,5,2.9,5,3.3,5
2018/3/5 1:33,2.8,5,2.8,5,3.1,7
2018/3/5 1:34,2.6,5,2.7,5,2.2,5
2018/3/5 1:35,2.6,5,2.6,5,4.2,4
2018/3/5 1:36,2.6,5,2.6,5,5,5
2018/3/5 1:37,2.5,5,2.6,5,4.1,5
2018/3/5 1:38,2.3,5,2.5,5,3.2,5
2018/3/5 1:39,2.2,5,2.3,5,3.1,5
2018/3/5 1:40,2.2,5,2.2,5,3.5,5
2018/3/5 1:41,2.1,5,2.2,5,2.9,5
2018/3/5 1:42,2.2,5,2.2,5,5.6,4
2018/3/5 1:43,2.4,5,2.4,5,4.8,5
2018/3/5 1:44,2.5,5,2.5,5,3,6
2018/3/5 1:45,2.5,5,2.5,5,4.2,5
2018/3/5 1:46,2.5,5,2.5,5,4.8,5
2018/3/5 1:47,2.6,5,2.6,5,4.2,5
2018/3/5 1:48,2.6,5,2.6,5,3.1,5
2018/3/5 1:49,2.6,5,2.6,5,3.1,4
2018/3/5 1:50,2.6,5,2.6,5,4.1,5
2018/3/5 1:51,2.7,5,2.7,5,2.6,5
2018/3/5 1:52,2.5,5,2.7,5,2.5,5
2018/3/5 1:53,2.4,5,2.4,5,3.7,6
2018/3/5 1:54,2.5,5,2.5,5,5,7
2018/3/5 1:55,2.4,5,2.5,5,2.5,7
2018/3/5 1:56,2.3,5,2.4,5,4.2,5
2018/3/5 1:57,2.2,5,2.2,5,3.6,4
2018/3/5 1:58,2.2,5,2.2,5,3.2,5
2018/3/5 1:59,2.2,5,2.2,5,3.8,5
2018/3/5 2:00,2.3,5,2.3,5,4.1,4
2018/3/5 2:01,2.3,5,2.3,5,3.8,4
2018/3/5 2:02,2.4,5,2.4,5,3.3,5
2018/3/5 2:03,2.4,5,2.4,5,4.2,7
2018/3/5 2:04,2.4,5,2.4,5,4.8,6
2018/3/5 2:05,2.5,5,2.5,5,3.3,5
2018/3/5 2:06,2.5,5,2.5,5,3.5,4
2018/3/5 2:07,2.5,5,2.5,5,3.7,6
2018/3/5 2:08,2.5,5,2.5,5,4.9,5
2018/3/5 2:09,2.5,5,2.5,5,4.5,4
2018/3/5 2:10,2.5,5,2.6,5,4.7,6
2018/3/5 2:11,2.5,5,2.6,5,4.4,6
2018/3/5 2:12,2.6,5,2.6,5,5,4
2018/3/5 2:13,2.6,5,2.6,5,3.1,5
2018/3/5 2:14,2.5,5,2.6,5,2.6,4
2018/3/5 2:15,2.4,5,2.5,5,2.9,3
2018/3/5 2:16,2.4,4,2.4,5,3.8,4
2018/3/5 2:17,2.4,4,2.4,5,4.1,4
2018/3/5 2:18,2.5,4,2.5,5,4.2,4
2018/3/5 2:19,2.5,5,2.5,5,3.9,5
2018/3/5 2:20,2.4,4,2.5,5,3,4
2018/3/5 2:21,2.4,4,2.4,5,3.9,3
2018/3/5 2:22,2.4,4,2.4,5,5,3
2018/3/5 2:23,2.4,4,2.4,5,3.1,3
2018/3/5 2:24,2.4,4,2.4,5,3.5,5
2018/3/5 2:25,2.5,4,2.5,4,3.5,3
2018/3/5 2:26,2.5,4,2.5,4,4.4,4
2018/3/5 2:27,2.5,4,2.5,4,3.8,3
2018/3/5 2:28,2.5,4,2.5,4,4.8,3
2018/3/5 2:29,2.5,4,2.5,5,4.9,4
2018/3/5 2:30,2.7,4,2.7,4,5.2,5
2018/3/5 2:31,2.8,4,2.8,4,4.4,4
2018/3/5 2:32,2.7,4,2.8,4,4.4,4
2018/3/5 2:33,2.9,4,2.9,4,5.1,4
2018/3/5 2:34,2.9,4,2.9,4,4.2,4
2018/3/5 2:35,2.9,4,2.9,4,3.5,3
2018/3/5 2:36,2.9,4,2.9,4,3.2,5
2018/3/5 2:37,2.9,4,2.9,4,4.8,4
2018/3/5 2:38,2.9,4,2.9,4,4.8,4
2018/3/5 2:39,2.8,4,2.9,4,3.9,5
2018/3/5 2:40,2.6,4,2.8,4,2.6,4
2018/3/5 2:41,2.4,5,2.6,4,2.6,7
2018/3/5 2:42,2.4,5,2.4,4,3.3,5
2018/3/5 2:43,2.2,5,2.4,4,3.3,5
2018/3/5 2:44,2.1,4,2.2,4,2.9,5
2018/3/5 2:45,2.1,5,2.1,4,3.3,3
2018/3/5 2:46,2.2,5,2.2,4,4.4,4
2018/3/5 2:47,2.2,5,2.3,4,3.8,5
2018/3/5 2:48,2.2,5,2.2,4,3.8,4
2018/3/5 2:49,2.2,5,2.2,4,3.6,5
2018/3/5 2:50,2.3,5,2.3,4,3.9,5
2018/3/5 2:51,2.5,4,2.5,4,5,5
2018/3/5 2:52,2.6,4,2.6,4,4.1,5
2018/3/5 2:53,2.6,5,2.7,4,3.7,5
2018/3/5 2:54,2.8,5,2.8,5,4.5,7
2018/3/5 2:55,2.7,5,2.8,5,3.2,6
2018/3/5 2:56,2.7,5,2.7,5,4.1,4
2018/3/5 2:57,2.7,5,2.7,5,5.4,4
2018/3/5 2:58,2.6,5,2.7,5,3.3,5
2018/3/5 2:59,2.5,5,2.6,5,2.7,6
2018/3/5 3:00,2.5,5,2.5,5,4.2,4
2018/3/5 3:01,2.4,5,2.5,5,3.1,4
2018/3/5 3:02,2.3,4,2.4,5,3.8,3
2018/3/5 3:03,2.3,4,2.3,5,3.3,3
2018/3/5 3:04,2.3,4,2.3,5,4.7,6
2018/3/5 3:05,2.4,4,2.4,5,5.5,6
2018/3/5 3:06,2.3,4,2.4,5,2.6,6
2018/3/5 3:07,2.3,4,2.3,5,3.9,4
2018/3/5 3:08,2.3,4,2.3,5,3.8,3
2018/3/5 3:09,2.5,4,2.5,5,4.5,3
2018/3/5 3:10,2.6,4,2.6,4,4.9,3
2018/3/5 3:11,2.7,4,2.7,4,4.3,3
2018/3/5 3:12,2.8,4,2.8,4,4.9,4
2018/3/5 3:13,2.9,4,2.9,4,4.9,5
2018/3/5 3:14,2.8,3,2.9,4,4.1,3
2018/3/5 3:15,2.8,3,2.8,4,4.3,4
2018/3/5 3:16,2.9,3,2.9,4,4.3,3
2018/3/5 3:17,2.9,3,3,3,3.1,4
2018/3/5 3:18,2.9,3,2.9,3,2.9,3
2018/3/5 3:19,2.7,4,2.9,3,2.7,5
2018/3/5 3:20,2.6,4,2.7,3,3.2,4
2018/3/5 3:21,2.5,4,2.5,3,3.9,3
2018/3/5 3:22,2.5,4,2.5,3,3.8,5
2018/3/5 3:23,2.4,4,2.5,3,3.8,5
2018/3/5 3:24,2.4,4,2.5,3,3.8,5
2018/3/5 3:25,2.4,4,2.5,3,4.5,4
2018/3/5 3:26,2.4,4,2.4,3,3.6,4
2018/3/5 3:27,2.5,4,2.5,3,4.1,4
2018/3/5 3:28,2.5,4,2.5,3,5.8,3
2018/3/5 3:29,2.7,4,2.7,4,5.6,4
2018/3/5 3:30,2.8,4,2.8,4,4.2,3
2018/3/5 3:31,2.7,4,2.8,4,2.7,5
2018/3/5 3:32,2.6,4,2.7,4,2.1,3
2018/3/5 3:33,2.5,4,2.5,4,3.5,3
2018/3/5 3:34,2.5,4,2.5,4,3.5,4
2018/3/5 3:35,2.3,4,2.5,4,2.5,4
2018/3/5 3:36,2.3,4,2.3,4,4.1,4
2018/3/5 3:37,2.2,4,2.3,4,3.5,4
2018/3/5 3:38,2.2,4,2.2,4,3.2,4
2018/3/5 3:39,2.1,4,2.1,4,4.4,4
2018/3/5 3:40,2.1,4,2.1,4,4.8,4
2018/3/5 3:41,2.3,4,2.3,4,5,4
2018/3/5 3:42,2.5,4,2.5,4,5,5
2018/3/5 3:43,2.5,4,2.5,4,4.1,5
2018/3/5 3:44,2.5,4,2.5,4,3.9,4
2018/3/5 3:45,2.6,4,2.6,4,3.9,4
2018/3/5 3:46,2.6,4,2.6,4,3.7,3
2018/3/5 3:47,2.6,4,2.6,4,3.8,2
2018/3/5 3:48,2.6,4,2.6,4,3.6,3
2018/3/5 3:49,2.5,4,2.6,4,5.7,5
2018/3/5 3:50,2.4,4,2.5,4,3.3,2
2018/3/5 3:51,2.2,3,2.4,4,3.1,2
2018/3/5 3:52,2.1,3,2.2,4,2.5,2
2018/3/5 3:53,2,3,2.1,4,2.6,2
2018/3/5 3:54,2,3,2,4,3.7,3
2018/3/5 3:55,2,3,2,4,3.3,3
2018/3/5 3:56,2,3,2,4,4.1,2
2018/3/5 3:57,2.1,3,2.1,4,4.2,3
2018/3/5 3:58,2.2,3,2.2,4,4.9,3
2018/3/5 3:59,2.3,3,2.3,4,4.3,3
2018/3/5 4:00,2.3,3,2.3,4,3.5,3
2018/3/5 4:01,2.4,3,2.4,3,3.3,3
2018/3/5 4:02,2.5,3,2.5,3,4.2,3
2018/3/5 4:03,2.6,3,2.6,3,5.2,2
2018/3/5 4:04,2.7,3,2.7,3,4.7,5
2018/3/5 4:05,2.9,3,2.9,3,5.5,4
2018/3/5 4:06,3,3,3,3,4.8,4
2018/3/5 4:07,3.1,3,3.1,3,4.8,3
2018/3/5 4:08,3.1,3,3.1,3,3.9,4
2018/3/5 4:09,3,3,3.1,3,3.9,4
2018/3/5 4:10,3.2,4,3.2,4,5,4
2018/3/5 4:11,3.2,4,3.2,4,4.5,4
2018/3/5 4:12,3.2,4,3.2,4,3.7,3
2018/3/5 4:13,3.2,4,3.3,4,2.6,4
2018/3/5 4:14,3,4,3.2,4,2,5
2018/3/5 4:15,2.7,4,3,4,2.2,3
2018/3/5 4:16,2.5,4,2.7,4,3,4
2018/3/5 4:17,2.3,4,2.5,4,2.6,4
2018/3/5 4:18,2.1,3,2.3,4,2.1,1
2018/3/5 4:19,2,3,2.1,4,3.6,3
2018/3/5 4:20,1.9,3,2,4,3.8,3
2018/3/5 4:21,1.8,3,1.8,4,3.8,3
2018/3/5 4:22,1.9,3,1.9,4,5,3
2018/3/5 4:23,1.9,3,1.9,4,4.7,3
2018/3/5 4:24,2.1,3,2.1,4,3.9,2
2018/3/5 4:25,2.3,3,2.3,4,4.7,2
2018/3/5 4:26,2.4,3,2.4,4,3.5,3
2018/3/5 4:27,2.4,2,2.4,3,3.8,2
2018/3/5 4:28,2.6,2,2.6,2,5.1,3
2018/3/5 4:29,2.7,2,2.7,2,4.5,4
2018/3/5 4:30,2.7,2,2.7,2,3.6,3
2018/3/5 4:31,2.7,2,2.7,2,4.4,3
2018/3/5 4:32,2.5,2,2.7,2,3.8,4
2018/3/5 4:33,2.5,2,2.5,2,4.9,3
2018/3/5 4:34,2.6,2,2.6,2,4.7,2
2018/3/5 4:35,2.6,2,2.6,2,5.4,3
2018/3/5 4:36,2.8,3,2.8,3,4.2,4
2018/3/5 4:37,2.8,3,2.8,3,3.7,4
2018/3/5 4:38,2.7,3,2.9,3,3.7,4
2018/3/5 4:39,2.6,3,2.7,3,4.2,2
2018/3/5 4:40,2.7,3,2.7,3,3.9,2
2018/3/5 4:41,2.6,3,2.7,3,3.3,2
2018/3/5 4:42,2.7,3,2.7,3,4.4,3
2018/3/5 4:43,2.9,3,2.9,3,6.1,4
2018/3/5 4:44,2.8,3,2.9,3,5.1,4
2018/3/5 4:45,2.5,3,2.8,3,3.2,4
2018/3/5 4:46,2.4,3,2.5,3,3,3
2018/3/5 4:47,2.3,3,2.4,3,3.9,3
2018/3/5 4:48,2.3,3,2.4,3,3.6,4
2018/3/5 4:49,2.4,3,2.4,3,3.1,3
2018/3/5 4:50,2.3,3,2.4,3,3.1,3
2018/3/5 4:51,2.5,3,2.5,3,3.9,3
2018/3/5 4:52,2.4,3,2.5,3,3.6,3
2018/3/5 4:53,2.2,3,2.4,3,4.7,3
2018/3/5 4:54,2.3,3,2.3,3,4.3,4
2018/3/5 4:55,2.4,3,2.4,3,4.7,3
2018/3/5 4:56,2.6,3,2.6,3,5,3
2018/3/5 4:57,2.7,3,2.7,3,4.9,3
2018/3/5 4:58,2.7,3,2.7,3,4.9,3
2018/3/5 4:59,2.8,3,2.8,3,4.2,3
2018/3/5 5:00,2.9,3,2.9,3,5.1,3
2018/3/5 5:01,2.8,3,2.9,3,4.5,3
2018/3/5 5:02,2.9,3,2.9,3,4.2,2
2018/3/5 5:03,2.9,3,2.9,3,4.5,3
2018/3/5 5:04,2.9,3,2.9,3,4.2,3
2018/3/5 5:05,2.7,3,2.9,3,3.9,2
2018/3/5 5:06,2.7,3,2.7,3,3.9,2
2018/3/5 5:07,2.6,3,2.7,3,3.9,4
2018/3/5 5:08,2.6,3,2.6,3,3.6,3
2018/3/5 5:09,2.7,3,2.7,3,5.5,3
2018/3/5 5:10,2.7,3,2.7,3,4.4,3
2018/3/5 5:11,2.8,3,2.8,3,5,3
2018/3/5 5:12,2.7,3,2.8,3,4.7,3
2018/3/5 5:13,2.8,3,2.8,3,5.5,3
2018/3/5 5:14,2.9,2,2.9,3,5.1,2
2018/3/5 5:15,3,3,3,2,4.8,3
2018/3/5 5:16,3.1,3,3.1,3,4.5,3
2018/3/5 5:17,3.1,3,3.2,3,5.1,3
2018/3/5 5:18,3.1,3,3.1,3,4.3,4
2018/3/5 5:19,3.1,2,3.1,3,4.9,3
2018/3/5 5:20,3,3,3.1,3,5.6,3
2018/3/5 5:21,3,3,3,3,4.4,3
2018/3/5 5:22,3.1,3,3.1,3,3.7,3
2018/3/5 5:23,3,3,3.1,3,3,3
2018/3/5 5:24,2.9,3,2.9,3,4.7,3
2018/3/5 5:25,2.9,3,2.9,3,4.7,2
2018/3/5 5:26,2.9,3,2.9,3,4.8,2
2018/3/5 5:27,2.8,2,2.9,3,5.2,1
2018/3/5 5:28,2.9,2,2.9,2,4.8,2
2018/3/5 5:29,2.9,2,2.9,2,5.2,3
2018/3/5 5:30,2.9,2,2.9,3,4.5,2
2018/3/5 5:31,2.8,2,2.9,3,4.4,3
2018/3/5 5:32,2.7,2,2.8,3,3.9,2
2018/3/5 5:33,2.8,2,2.8,3,4.9,3
2018/3/5 5:34,2.8,2,2.9,3,4.1,3
2018/3/5 5:35,2.7,2,2.8,3,3.5,1
2018/3/5 5:36,2.8,2,2.8,3,3.9,2
2018/3/5 5:37,2.7,2,2.7,2,3.2,1
2018/3/5 5:38,2.6,2,2.6,2,4.2,2
2018/3/5 5:39,2.5,2,2.5,2,3.9,1
2018/3/5 5:40,2.3,2,2.5,2,2.7,3
2018/3/5 5:41,2.3,2,2.3,2,4.3,2
2018/3/5 5:42,2.3,2,2.3,2,3.7,2
2018/3/5 5:43,2.2,2,2.3,2,4.2,1
2018/3/5 5:44,2.3,2,2.3,2,5.7,2
2018/3/5 5:45,2.4,2,2.4,2,7.1,1
2018/3/5 5:46,2.5,2,2.5,2,6.3,2
2018/3/5 5:47,2.7,2,2.7,2,5.7,3
2018/3/5 5:48,2.9,2,2.9,2,5.8,3
2018/3/5 5:49,3,2,3,2,5.2,3
2018/3/5 5:50,3,2,3,2,5.6,3
2018/3/5 5:51,3.2,2,3.2,2,6.2,2
2018/3/5 5:52,3.3,2,3.3,2,5.5,3
2018/3/5 5:53,3.5,2,3.5,2,6.3,3
2018/3/5 5:54,3.6,2,3.6,2,6.9,3
2018/3/5 5:55,3.6,2,3.6,2,5.6,2
2018/3/5 5:56,3.6,2,3.7,2,5.5,2
2018/3/5 5:57,3.5,2,3.6,2,4.2,3
2018/3/5 5:58,3.3,2,3.5,2,5.6,3
2018/3/5 5:59,3.4,2,3.4,2,5.6,2
2018/3/5 6:00,3.4,2,3.4,2,5.2,16
2018/3/5 6:01,3.4,2,3.5,2,6.7,2
2018/3/5 6:02,3.5,2,3.5,2,6.4,2
2018/3/5 6:03,3.4,2,3.5,2,5.7,2
2018/3/5 6:04,3.3,2,3.4,2,5.6,1
2018/3/5 6:05,3.1,2,3.2,2,3.5,2
2018/3/5 6:06,3.1,2,3.1,2,5.6,1
2018/3/5 6:07,3.2,2,3.2,2,5.6,3
2018/3/5 6:08,3.3,2,3.3,2,5.2,2
2018/3/5 6:09,3.3,2,3.3,2,5.6,1
2018/3/5 6:10,3.4,1,3.4,2,6.4,2
2018/3/5 6:11,3.5,2,3.5,2,10,2
2018/3/5 6:12,3.5,2,3.6,2,7.1,2
2018/3/5 6:13,3.5,1,3.5,2,7.6,2
2018/3/5 6:14,3.6,2,3.6,2,7.4,1
2018/3/5 6:15,3.7,2,3.7,2,6,1
2018/3/5 6:16,3.7,2,3.7,2,4.7,2
2018/3/5 6:17,3.7,2,3.7,2,6.3,2
2018/3/5 6:18,3.6,2,3.7,2,5.1,2
2018/3/5 6:19,3.6,2,3.7,2,4.5,2
2018/3/5 6:20,3.6,2,3.6,2,6.8,2
2018/3/5 6:21,3.4,2,3.6,2,5.7,1
2018/3/5 6:22,3.4,2,3.4,2,4.5,16
2018/3/5 6:23,3.5,2,3.5,2,6.7,1
2018/3/5 6:24,3.3,2,3.5,2,6.1,1
2018/3/5 6:25,3.4,2,3.4,2,7.1,16
2018/3/5 6:26,3.5,2,3.5,2,5.5,1
2018/3/5 6:27,3.4,2,3.5,2,6,2
2018/3/5 6:28,3.4,2,3.5,2,4.5,2
2018/3/5 6:29,3.3,2,3.4,2,4.4,3
2018/3/5 6:30,3.2,2,3.3,2,4.1,16
2018/3/5 6:31,3.3,2,3.3,2,6.4,2
2018/3/5 6:32,3.4,2,3.4,2,6.3,2
2018/3/5 6:33,3.2,2,3.4,2,6,1
2018/3/5 6:34,3.2,2,3.2,1,5.2,1
2018/3/5 6:35,3.1,2,3.2,1,5.7,2
2018/3/5 6:36,3,2,3.1,2,6.2,3
2018/3/5 6:37,3,2,3,2,4.7,3
2018/3/5 6:38,3.1,2,3.1,2,4.4,2
2018/3/5 6:39,3.1,2,3.1,2,4.2,1
2018/3/5 6:40,3.2,2,3.2,2,5.7,4
2018/3/5 6:41,3.2,2,3.3,2,5.6,3
2018/3/5 6:42,3,2,3.2,2,4.9,3
2018/3/5 6:43,3,2,3,2,4.3,3
2018/3/5 6:44,3,2,3,2,4.8,3
2018/3/5 6:45,3.2,3,3.2,2,7,3
2018/3/5 6:46,3.2,3,3.2,2,5.6,3
2018/3/5 6:47,3.3,3,3.3,2,6.5,3
2018/3/5 6:48,3.5,3,3.5,3,7.5,3
2018/3/5 6:49,3.6,3,3.6,3,7.2,3
2018/3/5 6:50,3.6,3,3.7,3,4.5,4
2018/3/5 6:51,3.6,3,3.6,3,4.4,3
2018/3/5 6:52,3.5,3,3.6,3,2.6,3
2018/3/5 6:53,3.3,3,3.4,3,3.2,1
2018/3/5 6:54,3.3,2,3.3,3,3.8,1
2018/3/5 6:55,2.9,2,3.2,3,4.1,1
2018/3/5 6:56,2.8,2,2.9,3,4.3,15
2018/3/5 6:57,2.7,2,2.8,3,4.9,15
2018/3/5 6:58,2.6,1,2.7,3,6.5,15
2018/3/5 6:59,2.8,1,2.8,3,6.9,16
2018/3/5 7:00,3.1,16,3.1,3,7.4,15
2018/3/5 7:01,3.2,16,3.2,3,7,15
2018/3/5 7:02,3.3,16,3.3,3,4.2,16
2018/3/5 7:03,3.3,16,3.3,3,2.5,2
2018/3/5 7:04,3.2,16,3.3,16,2.7,2
2018/3/5 7:05,3.3,16,3.3,16,4.4,3
2018/3/5 7:06,3.3,1,3.3,16,2.9,2
2018/3/5 7:07,3,1,3.3,16,2.5,2
2018/3/5 7:08,2.9,1,3,16,3.1,15
2018/3/5 7:09,2.6,16,2.8,16,3.3,14
2018/3/5 7:10,2.3,16,2.6,16,5.4,15
2018/3/5 7:11,2.1,16,2.3,16,3.7,15
2018/3/5 7:12,2.1,16,2.1,16,3.8,16
2018/3/5 7:13,2.2,16,2.2,16,3.6,16
2018/3/5 7:14,2.2,16,2.3,16,3.3,16
2018/3/5 7:15,2.2,16,2.2,16,2.4,2
2018/3/5 7:16,2.3,16,2.3,1,4.1,3
2018/3/5 7:17,2.5,16,2.5,1,3.5,3
2018/3/5 7:18,2.4,1,2.5,1,2.2,3
2018/3/5 7:19,2.3,2,2.4,16,2.1,4
2018/3/5 7:20,2.1,2,2.3,16,1.9,3
2018/3/5 7:21,2,3,2.1,16,3,4
2018/3/5 7:22,1.8,3,2,16,1.6,5
2018/3/5 7:23,1.7,3,1.8,16,1.6,3
2018/3/5 7:24,1.6,3,1.7,16,1.9,2
2018/3/5 7:25,1.5,3,1.6,16,2,2
2018/3/5 7:26,1.2,3,1.4,16,1.1,1
2018/3/5 7:27,1,3,1.1,1,1.3,15
2018/3/5 7:28,0.9,2,1,1,1.5,16
2018/3/5 7:29,0.8,2,0.9,2,1.1,2
2018/3/5 7:30,0.7,2,0.8,2,1,2
2018/3/5 7:31,0.7,2,0.7,3,1.9,2
2018/3/5 7:32,0.8,2,0.8,3,2.9,3
2018/3/5 7:33,0.9,2,0.9,3,3,3
2018/3/5 7:34,1,2,1,3,2.1,2
2018/3/5 7:35,1.1,2,1.1,3,1.9,3
2018/3/5 7:36,1.2,2,1.2,2,2.5,3
2018/3/5 7:37,1.2,2,1.2,2,2.2,3
2018/3/5 7:38,1.2,2,1.2,2,1,1
2018/3/5 7:39,1.2,2,1.2,2,1,4
2018/3/5 7:40,1.2,2,1.2,2,1.4,4
2018/3/5 7:41,1.2,3,1.3,3,1.9,3
2018/3/5 7:42,1.2,3,1.2,3,1.8,3
2018/3/5 7:43,1,3,1.1,3,1.3,3
2018/3/5 7:44,0.9,3,1,3,0.9,3
2018/3/5 7:45,0.8,3,0.9,3,0.8,3
2018/3/5 7:46,0.6,3,0.8,3,0.3,11
2018/3/5 7:47,0.5,3,0.6,3,0.1,8
2018/3/5 7:48,0.4,4,0.5,3,0.1,9
2018/3/5 7:49,0.4,4,0.4,3,0.1,12
2018/3/5 7:50,0.4,5,0.4,3,1.5,11
2018/3/5 7:51,0.4,11,0.4,3,1.6,11
2018/3/5 7:52,0.3,12,0.4,3,0.1,12
2018/3/5 7:53,0.2,12,0.3,3,0.1,14
2018/3/5 7:54,0.3,12,0.3,3,0.9,15
2018/3/5 7:55,0.3,12,0.3,3,1.3,15
2018/3/5 7:56,0.4,13,0.4,3,1.4,16
2018/3/5 7:57,0.5,14,0.5,3,2,16
2018/3/5 7:58,0.7,14,0.7,14,3.1,16
2018/3/5 7:59,1,15,1,14,3.5,1
2018/3/5 8:00,1.2,15,1.2,15,3.6,1
2018/3/5 8:01,1.3,16,1.3,16,3,2
2018/3/5 8:02,1.4,16,1.4,16,2.2,2
2018/3/5 8:03,1.4,16,1.4,16,1.5,1
2018/3/5 8:04,1.4,16,1.4,16,1.4,15
2018/3/5 8:05,1.5,1,1.5,16,2.1,1
2018/3/5 8:06,1.6,1,1.6,1,2.7,16
2018/3/5 8:07,1.7,1,1.7,1,3.1,1
2018/3/5 8:08,1.6,1,1.7,1,2.5,1
2018/3/5 8:09,1.5,1,1.6,1,2.2,1
2018/3/5 8:10,1.4,1,1.4,1,2.6,2
2018/3/5 8:11,1.3,1,1.4,1,2,2
2018/3/5 8:12,1.3,1,1.3,1,1.5,1
2018/3/5 8:13,1.4,1,1.4,1,1.3,1
2018/3/5 8:14,1.4,1,1.4,1,1.9,2
2018/3/5 8:15,1.4,1,1.4,1,2.4,2
2018/3/5 8:16,1.4,1,1.4,1,3.1,2
2018/3/5 8:17,1.3,2,1.4,1,2.7,1
2018/3/5 8:18,1.3,2,1.3,1,2.5,2
2018/3/5 8:19,1.3,2,1.4,1,2.1,2
2018/3/5 8:20,1.3,2,1.3,1,2.5,3
2018/3/5 8:21,1.3,2,1.3,1,2,4
2018/3/5 8:22,1.3,2,1.3,1,2.4,3
2018/3/5 8:23,1.3,2,1.3,1,1.5,4
2018/3/5 8:24,1.3,3,1.4,1,1.8,4
2018/3/5 8:25,1.4,3,1.4,1,2.2,2
2018/3/5 8:26,1.4,3,1.4,1,2.4,4
2018/3/5 8:27,1.4,3,1.4,2,2.9,3
2018/3/5 8:28,1.6,3,1.6,3,3.7,3
2018/3/5 8:29,1.6,3,1.6,3,2.9,3
2018/3/5 8:30,1.6,3,1.7,3,1.8,1
2018/3/5 8:31,1.5,3,1.6,3,2,2
2018/3/5 8:32,1.5,3,1.5,3,2.6,4
2018/3/5 8:33,1.5,3,1.5,3,1.9,3
2018/3/5 8:34,1.4,3,1.5,3,1.1,3
2018/3/5 8:35,1.3,3,1.4,3,0.1,4
2018/3/5 8:36,1.1,3,1.3,3,0.1,5
2018/3/5 8:37,1,3,1.1,3,2,3
2018/3/5 8:38,0.8,3,0.9,3,1.9,3
2018/3/5 8:39,0.7,3,0.8,3,1.6,3
2018/3/5 8:40,0.8,4,0.8,3,2.5,4
2018/3/5 8:41,0.9,4,0.9,3,2.4,3
2018/3/5 8:42,1,4,1,3,2.5,3
2018/3/5 8:43,1.1,4,1.1,3,2.4,4
2018/3/5 8:44,1.3,3,1.3,3,2.6,3
2018/3/5 8:45,1.5,3,1.5,3,2.9,3
2018/3/5 8:46,1.7,3,1.7,3,3.3,3
2018/3/5 8:47,1.9,3,1.9,3,3.6,3
2018/3/5 8:48,2,3,2,3,3.9,4
2018/3/5 8:49,2.2,3,2.2,3,3.3,3
2018/3/5 8:50,2.2,3,2.2,3,2.6,2
2018/3/5 8:51,2.3,3,2.3,3,3.1,3
2018/3/5 8:52,2.3,3,2.3,3,2.7,3
2018/3/5 8:53,2.3,3,2.3,3,3,3
2018/3/5 8:54,2.4,3,2.4,3,2.9,3
2018/3/5 8:55,2.4,3,2.4,3,3.5,3
2018/3/5 8:56,2.5,3,2.5,3,3.8,3
2018/3/5 8:57,2.5,3,2.5,3,3.6,3
2018/3/5 8:58,2.4,3,2.5,3,3.2,3
2018/3/5 8:59,2.5,3,2.5,3,3.9,3
2018/3/5 9:00,2.5,3,2.6,3,4.2,3
2018/3/5 9:01,2.6,3,2.6,3,4.3,3
2018/3/5 9:02,2.7,3,2.7,3,3.8,3
2018/3/5 9:03,2.8,3,2.8,3,5.4,3
2018/3/5 9:04,3,3,3,3,6,3
2018/3/5 9:05,3.1,3,3.1,3,5.6,3
2018/3/5 9:06,3.3,3,3.3,3,6.3,4
2018/3/5 9:07,3.5,3,3.5,3,6.7,3
2018/3/5 9:08,3.6,3,3.6,3,6.5,3
2018/3/5 9:09,3.8,3,3.8,3,6.5,3
2018/3/5 9:10,3.9,3,3.9,3,6.2,2
2018/3/5 9:11,3.9,3,3.9,3,5,3
2018/3/5 9:12,3.8,3,3.9,3,4.5,3
2018/3/5 9:13,3.7,2,3.8,3,4.3,3
2018/3/5 9:14,3.5,2,3.6,3,5.7,2
2018/3/5 9:15,3.5,2,3.5,3,6.1,3
2018/3/5 9:16,3.6,2,3.6,3,6,3
2018/3/5 9:17,3.5,2,3.5,3,5.8,3
2018/3/5 9:18,3.4,2,3.5,3,4.7,3
2018/3/5 9:19,3.3,2,3.4,3,5.2,3
2018/3/5 9:20,3.2,2,3.3,3,3.6,4
2018/3/5 9:21,3.3,3,3.3,3,4.3,3
2018/3/5 9:22,3.3,3,3.4,3,4.5,3
2018/3/5 9:23,3.4,3,3.4,2,3.8,3
2018/3/5 9:24,3.3,3,3.4,2,4.3,4
2018/3/5 9:25,3.2,3,3.4,2,4.5,3
2018/3/5 9:26,3,3,3.2,2,4.2,3
2018/3/5 9:27,2.8,3,3,2,3.2,2
2018/3/5 9:28,2.8,3,2.8,2,4.9,3
2018/3/5 9:29,2.7,3,2.8,3,5.1,3
2018/3/5 9:30,2.8,3,2.8,3,5,3
2018/3/5 9:31,2.9,3,2.9,3,5.6,2
2018/3/5 9:32,2.8,3,2.9,3,5.1,3
2018/3/5 9:33,2.8,3,2.8,3,4.9,3
2018/3/5 9:34,2.7,2,2.8,3,4.2,3
2018/3/5 9:35,2.7,2,2.7,3,3.5,3
2018/3/5 9:36,2.7,2,2.7,3,4.8,2
2018/3/5 9:37,2.8,2,2.8,3,5,2
2018/3/5 9:38,2.8,2,2.9,3,5.5,3
2018/3/5 9:39,2.8,2,2.8,3,4.1,2
2018/3/5 9:40,2.7,2,2.8,3,5.8,1
2018/3/5 9:41,2.6,2,2.7,3,5.2,1
2018/3/5 9:42,2.7,2,2.7,2,4.4,2
2018/3/5 9:43,2.7,2,2.7,2,3.5,3
2018/3/5 9:44,2.7,2,2.7,2,4.3,4
2018/3/5 9:45,2.7,2,2.8,2,3.3,3
2018/3/5 9:46,2.7,3,2.7,2,3.3,5
2018/3/5 9:47,2.7,3,2.7,2,4.8,3
2018/3/5 9:48,2.5,3,2.7,2,2.7,3
2018/3/5 9:49,2.4,3,2.5,2,2.4,3
2018/3/5 9:50,2.3,3,2.4,2,3.2,3
2018/3/5 9:51,2.2,3,2.3,2,3.2,2
2018/3/5 9:52,2,3,2.1,2,3,2
2018/3/5 9:53,2,3,2,2,2.9,2
2018/3/5 9:54,1.8,3,1.9,2,1.3,4
2018/3/5 9:55,1.7,3,1.8,3,3.7,3
2018/3/5 9:56,1.8,2,1.8,3,4.3,3
2018/3/5 9:57,1.7,2,1.8,3,3.8,4
2018/3/5 9:58,1.7,2,1.7,3,2.4,3
2018/3/5 9:59,1.8,2,1.8,3,4.4,3
2018/3/5 10:00,1.9,3,1.9,3,3.3,4
2018/3/5 10:01,2,3,2,3,3.8,3
2018/3/5 10:02,2,3,2,3,3.9,3
2018/3/5 10:03,2.2,3,2.2,3,4.4,3
2018/3/5 10:04,2.4,3,2.4,3,4.3,3
2018/3/5 10:05,2.6,3,2.6,3,4.8,3
2018/3/5 10:06,2.5,3,2.6,3,3.8,3
2018/3/5 10:07,2.4,3,2.5,3,4.1,3
2018/3/5 10:08,2.5,3,2.5,3,4.2,2
2018/3/5 10:09,2.5,2,2.5,3,4.5,3
2018/3/5 10:10,2.6,2,2.6,3,5.1,3
2018/3/5 10:11,2.5,2,2.6,3,3.5,2
2018/3/5 10:12,2.5,2,2.5,3,3.9,2
2018/3/5 10:13,2.4,2,2.5,3,4.4,1
2018/3/5 10:14,2.4,2,2.4,3,4.5,2
2018/3/5 10:15,2.3,2,2.4,3,3.9,2
2018/3/5 10:16,2.4,2,2.4,2,5.1,2
2018/3/5 10:17,2.4,2,2.4,2,3.5,3
2018/3/5 10:18,2.5,2,2.5,2,3.9,2
2018/3/5 10:19,2.4,2,2.5,2,3.9,2
2018/3/5 10:20,2.3,2,2.4,2,4.1,1
2018/3/5 10:21,2.3,2,2.3,2,2.5,3
2018/3/5 10:22,2.2,2,2.3,2,2.7,4
2018/3/5 10:23,2.1,2,2.2,2,2.5,16
2018/3/5 10:24,1.9,2,2.1,2,1.3,16
2018/3/5 10:25,1.7,2,1.8,2,1.6,16
2018/3/5 10:26,1.5,2,1.7,2,2.7,2
2018/3/5 10:27,1.4,2,1.5,2,2.2,2
2018/3/5 10:28,1.2,2,1.4,2,2.1,3
2018/3/5 10:29,1.2,2,1.2,2,2.4,3
2018/3/5 10:30,1.3,2,1.3,2,2.7,4
2018/3/5 10:31,1.4,2,1.4,2,3.2,3
2018/3/5 10:32,1.5,2,1.5,2,3.2,3
2018/3/5 10:33,1.7,3,1.7,2,3.5,3
2018/3/5 10:34,1.9,3,1.9,3,3.2,4
2018/3/5 10:35,2.1,3,2.1,3,3.9,3
2018/3/5 10:36,2.2,3,2.2,3,3.8,3
2018/3/5 10:37,2.3,3,2.3,3,3.5,3
2018/3/5 10:38,2.5,3,2.5,3,4.4,3
2018/3/5 10:39,2.5,3,2.6,3,4.1,1
2018/3/5 10:40,2.6,3,2.6,3,4.4,3
2018/3/5 10:41,2.6,3,2.6,3,3.5,2
2018/3/5 10:42,2.6,3,2.6,3,3.8,2
2018/3/5 10:43,2.6,3,2.6,3,4.2,3
2018/3/5 10:44,2.6,3,2.6,3,4.3,3
2018/3/5 10:45,2.7,3,2.7,3,4.3,4
2018/3/5 10:46,2.6,3,2.6,3,3.5,3
2018/3/5 10:47,2.6,3,2.6,3,2.9,4
2018/3/5 10:48,2.5,3,2.6,3,3.2,3
2018/3/5 10:49,2.5,3,2.5,3,2.5,3
2018/3/5 10:50,2.3,3,2.5,3,2.5,3
2018/3/5 10:51,2.3,3,2.3,3,2.5,3
2018/3/5 10:52,2.2,3,2.3,3,2.6,3
2018/3/5 10:53,2.2,3,2.2,3,3.8,3
2018/3/5 10:54,2.2,3,2.2,3,3.8,3
2018/3/5 10:55,2.1,3,2.1,3,2.7,4
2018/3/5 10:56,2,3,2.1,3,2.7,3
2018/3/5 10:57,1.9,3,2,3,1.8,3
2018/3/5 10:58,1.8,3,1.9,3,1.5,3
2018/3/5 10:59,1.6,3,1.8,3,1.5,4
2018/3/5 11:00,1.5,3,1.6,3,0.8,2
2018/3/5 11:01,1.5,3,1.5,3,1.8,3
2018/3/5 11:02,1.4,3,1.4,3,1.8,3
2018/3/5 11:03,1.2,2,1.3,3,1,16
2018/3/5 11:04,1,2,1.2,3,1,16
2018/3/5 11:05,0.9,2,1,3,1.1,2
2018/3/5 11:06,0.7,2,0.8,3,1.1,2
2018/3/5 11:07,0.6,2,0.7,3,0.8,3
2018/3/5 11:08,0.6,2,0.6,3,0.8,2
2018/3/5 11:09,0.5,2,0.6,3,0.3,1
2018/3/5 11:10,0.5,2,0.5,3,0.1,1
2018/3/5 11:11,0.4,1,0.5,3,0.1,1
2018/3/5 11:12,0.3,1,0.4,3,0.3,1
2018/3/5 11:13,0.2,1,0.3,2,0.3,16
2018/3/5 11:14,0.2,1,0.2,2,0.1,15
2018/3/5 11:15,0.1,1,0.2,2,0.9,1
2018/3/5 11:16,0.2,1,0.2,2,1.1,16
2018/3/5 11:17,0.2,1,0.2,2,1.1,16
2018/3/5 11:18,0.2,1,0.2,2,1.4,15
2018/3/5 11:19,0.3,1,0.3,2,1.1,16
2018/3/5 11:20,0.3,16,0.3,2,0.8,15
2018/3/5 11:21,0.3,16,0.3,1,1,16
2018/3/5 11:22,0.5,16,0.5,16,2.7,16
2018/3/5 11:23,0.7,16,0.7,16,2.4,16
2018/3/5 11:24,0.8,16,0.8,16,1.8,16
2018/3/5 11:25,0.9,16,0.9,16,2.4,1
2018/3/5 11:26,1,16,1,16,3.5,2
2018/3/5 11:27,1.2,16,1.2,16,3.9,2
2018/3/5 11:28,1.3,1,1.3,16,3.5,2
2018/3/5 11:29,1.4,1,1.4,1,2.9,2
2018/3/5 11:30,1.6,1,1.6,1,3.1,2
2018/3/5 11:31,1.9,1,1.9,1,4.9,3
2018/3/5 11:32,1.9,2,1.9,1,3.7,3
2018/3/5 11:33,2,2,2,2,3.8,3
2018/3/5 11:34,2.2,2,2.2,2,4.1,3
2018/3/5 11:35,2.3,2,2.3,2,3.7,3
2018/3/5 11:36,2.3,2,2.3,2,3.2,4
2018/3/5 11:37,2.2,2,2.3,2,3.2,3
2018/3/5 11:38,2.2,2,2.2,2,3,4
2018/3/5 11:39,2.2,2,2.2,2,2.5,2
2018/3/5 11:40,2.3,2,2.3,2,3.3,3
2018/3/5 11:41,2.2,3,2.3,2,3.7,1
2018/3/5 11:42,2.3,3,2.3,2,2.9,3
2018/3/5 11:43,2.2,3,2.3,2,2.6,3
2018/3/5 11:44,2.1,2,2.1,2,3.8,2
2018/3/5 11:45,2,2,2.1,2,3.7,3
2018/3/5 11:46,2.1,3,2.1,2,4.4,3
2018/3/5 11:47,2.2,3,2.2,2,4.8,2
2018/3/5 11:48,2.3,3,2.3,2,3.7,3
2018/3/5 11:49,2.4,3,2.4,3,3.7,3
2018/3/5 11:50,2.3,3,2.4,3,3.2,2
2018/3/5 11:51,2.3,3,2.3,3,3.5,4
2018/3/5 11:52,2.2,2,2.3,3,2.7,2
2018/3/5 11:53,2.3,2,2.3,3,4.1,3
2018/3/5 11:54,2.3,3,2.4,3,3.1,3
2018/3/5 11:55,2.2,3,2.3,3,2,3
2018/3/5 11:56,2.1,3,2.2,3,2.5,2
2018/3/5 11:57,2,3,2.1,3,2.6,3
2018/3/5 11:58,1.9,3,2,3,2.5,3
2018/3/5 11:59,1.7,3,1.9,3,2.4,2
2018/3/5 12:00,1.8,3,1.8,3,2.9,3
2018/3/5 12:01,1.8,3,1.9,3,2.7,4
2018/3/5 12:02,1.9,3,1.9,3,2.6,4
2018/3/5 12:03,1.8,3,1.9,3,2.7,4